This demonstration page uses our WeatherBlox Daily Observations layout. Learn more.

Left ArrowRight Arrow

Hourly Observations for January 25, 2019

Temp ( °F °C ) Dew Point ( °F °C ) Humidity (%) Winds ( mph kmh ) Pressure ( in mb ) Visibility ( mi km ) Precip ( " mm )
12:53 am 00:53 Clear 34 1.1 27 -2.8 76 76 NW 3 6 30.13 1020 10 16 0.00 0.00
1:53 am 01:53 Clear 33 0.6 27 -2.8 78 78 WNW 6 9 30.14 1021 10 16 0.00 0.00
2:53 am 02:53 Clear 32 0 27 -2.8 82 82 W 5 7 30.16 1022 10 16 0.00 0.00
3:53 am 03:53 Clear 32 0 27 -2.8 82 82 WNW 5 7 30.19 1022 10 16 0.00 0.00
4:53 am 04:53 Clear 32 0 26 -3.3 79 79 Calm 30.20 1023 10 16 0.00 0.00
5:53 am 05:53 Clear 32 0 25 -3.9 75 75 WNW 3 6 30.21 1023 10 16 0.00 0.00
6:53 am 06:53 Clear 31 -0.6 25 -3.9 79 79 NW 5 7 30.24 1024 10 16 0.00 0.00
7:53 am 07:53 Sunny 30 -1.1 25 -3.9 82 82 Calm 30.25 1025 10 16 0.00 0.00
8:53 am 08:53 Sunny 34 1.1 26 -3.3 73 73 NW 5 7 30.26 1025 10 16 0.00 0.00
9:53 am 09:53 Sunny 36 2.2 26 -3.3 67 67 NNW 13 20 30.28 1026 10 16 0.00 0.00
10:53 am 10:53 Sunny 39 3.9 25 -3.9 57 57 NNW 10 17 30.29 1026 10 16 0.00 0.00
11:53 am 11:53 Sunny 41 5 26 -3.3 55 55 WNW 14 22 30.28 1026 10 16 0.00 0.00
12:53 pm 12:53 Sunny 44 6.7 26 -3.3 49 49 NW 12 19 30.27 1025 10 16 0.00 0.00
1:53 pm 13:53 Sunny 46 7.8 23 -5 40 40 NW 9 15 30.24 1024 10 16 0.00 0.00
2:53 pm 14:53 Sunny 46 7.8 21 -6.1 37 37 WNW 9 15 30.24 1024 10 16 0.00 0.00
3:53 pm 15:53 Sunny 47 8.3 21 -6.1 36 36 NW 14 22 30.24 1024 10 16 0.00 0.00
4:53 pm 16:53 Sunny 46 7.8 21 -6.1 37 37 NW 8 13 30.23 1024 10 16 0.00 0.00
5:53 pm 17:53 Sunny 43 6.1 22 -5.6 43 43 NW 8 13 30.23 1024 10 16 0.00 0.00
6:53 pm 18:53 Clear 40 4.4 22 -5.6 49 49 W 5 7 30.24 1024 10 16 0.00 0.00
7:53 pm 19:53 Clear 38 3.3 21 -6.1 51 51 Calm 30.26 1025 10 16 0.00 0.00
8:53 pm 20:53 Clear 35 1.7 24 -4.4 64 64 Calm 30.28 1025 10 16 0.00 0.00
9:53 pm 21:53 Clear 34 1.1 21 -6.1 59 59 Calm 30.29 1026 10 16 0.00 0.00
10:53 pm 22:53 Clear 34 1.1 22 -5.6 61 61 Calm 30.29 1026 10 16 0.00 0.00
11:53 pm 23:53 Clear 30 -1.1 21 -6.1 69 69 S 3 6 30.30 1026 10 16 0.00 0.00

Powered by AerisWeather